Tracking 18980 objects as of 19-Feb-2018
HD Live streaming from Space Station
objects crossing your sky now

FENGYUN 1C DEB

Track FENGYUN 1C DEB now!
10-day predictions


NORAD ID: 33674
Int'l Code: 1999-025DFK
Perigee: 844.7 km
Apogee: 1,184.3 km
Inclination: 98.6 °
Period: 105.3 minutes
Semi major axis: 7385 km
RCS: 0.0036 m2 (small)
Launch date: May 10, 1999
Source: People's Republic of China (PRC)
Launch site: Taiyaun Space Center, China (TSC)

Note: This is SATELLITE DEBRIS
aabbcc
Your satellite tracking list
Your tracking list is empty




NASA's NSSDC Master Catalog

Two Line Element Set (TLE):
1 33674U 99025DFK 18043.07417535  .00000128  00000-0  16438-3 0  9992
2 33674  98.6134 351.1702 0229892 297.0350  60.7500 13.67839801492710
Source of the keplerian elements: AFSPC